| time (UTC) | temp C | wind direction | speed KPH | gust KPH | rain 1hr cm | rain 24hr cm | rain mn cm | humidity % | barometer mb |
| 20260510093004 | 9 | 207 | 0.0 | 0.0 | 0.00 | 1.24 | 0.00 | 98 | 1010.5 |
| 20260510091603 | 9 | 207 | 0.0 | 0.0 | 0.00 | 1.24 | 0.00 | 98 | 1010.3 |
| 20260510090005 | 9 | 207 | 0.0 | 0.0 | 0.00 | 1.24 | 0.00 | 98 | 1010.3 |
| 20260510084502 | 10 | 207 | 0.0 | 0.0 | 0.00 | 1.37 | 0.00 | 98 | 1010.1 |
| 20260510083007 | 10 | 207 | 0.0 | 0.0 | 0.00 | 1.37 | 0.00 | 98 | 1010.1 |
| 20260510081503 | 10 | 207 | 0.0 | 0.0 | 0.00 | 1.37 | 0.00 | 98 | 1010.1 |
| 20260510074603 | 9 | 130 | 0.0 | 0.0 | 0.00 | 1.55 | 0.00 | 98 | 1010.6 |
| 20260510073002 | 10 | 130 | 0.0 | 0.0 | 0.00 | 1.55 | 0.00 | 98 | 1010.6 |
| 20260510071603 | 10 | 130 | 0.0 | 0.0 | 0.00 | 1.55 | 0.00 | 98 | 1010.8 |
| 20260510070002 | 10 | 130 | 0.0 | 0.0 | 0.00 | 1.55 | 0.00 | 98 | 1010.9 |
| 20260510064508 | 10 | 130 | 0.0 | 3.2 | 0.00 | 1.57 | 0.00 | 98 | 1011.1 |
| 20260510063104 | 10 | 130 | 0.0 | 3.2 | 0.00 | 1.57 | 0.00 | 98 | 1011.0 |
| 20260510061503 | 10 | 161 | 0.0 | 0.0 | 0.00 | 1.57 | 0.00 | 98 | 1010.8 |
| 20260510060002 | 9 | 161 | 0.0 | 0.0 | 0.00 | 1.57 | 0.00 | 98 | 1010.5 |
| 20260510054603 | 9 | 161 | 0.0 | 0.0 | 0.00 | 1.57 | 0.00 | 98 | 1010.6 |
| 20260510053004 | 10 | 161 | 0.0 | 0.0 | 0.00 | 1.57 | 0.00 | 98 | 1010.5 |
| 20260510051503 | 10 | 161 | 0.0 | 0.0 | 0.00 | 1.57 | 0.00 | 98 | 1010.5 |
| 20260510044502 | 10 | 161 | 0.0 | 0.0 | 0.00 | 1.57 | 0.00 | 98 | 1010.4 |
| 20260510043112 | 10 | 161 | 0.0 | 0.0 | 0.00 | 1.57 | 0.00 | 98 | 1010.4 |
| 20260510041503 | 10 | 161 | 0.0 | 0.0 | 0.00 | 1.57 | 0.00 | 98 | 1010.5 |
| 20260510040105 | 10 | 161 | 0.0 | 0.0 | 0.00 | 1.57 | 0.00 | 98 | 1010.4 |
| 20260510034606 | 10 | 161 | 0.0 | 0.0 | 0.00 | 1.57 | 1.57 | 98 | 1010.3 |
| 20260510033003 | 10 | 161 | 0.0 | 0.0 | 0.00 | 1.57 | 1.57 | 98 | 1010.2 |
| 20260510031624 | 10 | 161 | 0.0 | 0.0 | 0.00 | 1.57 | 1.57 | 98 | 1010.5 |
| 20260510030002 | 10 | 161 | 0.0 | 0.0 | 0.00 | 1.57 | 1.57 | 98 | 1010.6 |
| 20260510024502 | 10 | 161 | 0.0 | 0.0 | 0.00 | 1.57 | 1.57 | 98 | 1010.6 |
| 20260510023102 | 10 | 161 | 0.0 | 0.0 | 0.00 | 1.57 | 1.57 | 98 | 1010.4 |
| 20260510021603 | 10 | 161 | 0.0 | 0.0 | 0.00 | 1.57 | 1.57 | 98 | 1010.3 |
| 20260510014602 | 10 | 161 | 0.0 | 0.0 | 0.00 | 1.57 | 1.57 | 98 | 1010.2 |
| 20260510013002 | 10 | 161 | 0.0 | 0.0 | 0.00 | 1.57 | 1.57 | 97 | 1010.5 |
| 20260510011603 | 11 | 161 | 0.0 | 0.0 | 0.00 | 1.57 | 1.57 | 97 | 1010.2 |
| 20260510010005 | 11 | 161 | 0.0 | 0.0 | 0.00 | 1.57 | 1.57 | 97 | 1010.2 |
| 20260510004503 | 11 | 161 | 0.0 | 0.0 | 0.00 | 1.57 | 1.57 | 97 | 1009.8 |
| 20260510003102 | 11 | 161 | 0.0 | 0.0 | 0.00 | 1.57 | 1.57 | 97 | 1009.7 |
| 20260510001502 | 11 | 161 | 0.0 | 0.0 | 0.00 | 1.57 | 1.57 | 97 | 1009.7 |
| 20260510000109 | 11 | 161 | 0.0 | 0.0 | 0.00 | 1.57 | 1.57 | 96 | 1009.3 |
| 20260509234503 | 11 | 161 | 0.0 | 0.0 | 0.00 | 1.57 | 1.57 | 97 | 1009.0 |
| 20260509233102 | 12 | 161 | 0.0 | 3.2 | 0.00 | 1.57 | 1.57 | 97 | 1008.9 |
| 20260509231503 | 12 | 157 | 0.0 | 0.0 | 0.00 | 1.57 | 1.57 | 96 | 1008.8 |
| 20260509230004 | 12 | 155 | 0.0 | 1.6 | 0.00 | 1.57 | 1.57 | 96 | 1008.8 |
| 20260509224502 | 12 | 155 | 0.0 | 3.2 | 0.00 | 1.57 | 1.57 | 96 | 1009.0 |
| 20260509223107 | 12 | 213 | 0.0 | 3.2 | 0.00 | 1.57 | 1.57 | 97 | 1009.1 |
| 20260509221503 | 12 | 213 | 1.6 | 6.4 | 0.00 | 1.57 | 1.57 | 97 | 1008.9 |
| 20260509220104 | 12 | 146 | 0.0 | 9.7 | 0.00 | 1.57 | 1.57 | 97 | 1008.9 |
| 20260509214606 | 12 | 186 | 0.0 | 3.2 | 0.00 | 1.57 | 1.57 | 97 | 1009.1 |
| 20260509213003 | 12 | 187 | 3.2 | 6.4 | 0.03 | 1.57 | 1.57 | 97 | 1009.1 |
| 20260509210003 | 11 | 152 | 0.0 | 8.0 | 0.10 | 1.57 | 1.57 | 98 | 1009.3 |
| 20260509204502 | 11 | 259 | 0.0 | 1.6 | 0.13 | 1.57 | 1.57 | 97 | 1009.4 |
| 20260509203104 | 11 | 259 | 0.0 | 1.6 | 0.18 | 1.55 | 1.55 | 97 | 1009.7 |
| 20260509201501 | 11 | 259 | 0.0 | 3.2 | 0.18 | 1.52 | 1.52 | 98 | 1010.0 |
| 20260509200110 | 11 | 246 | 0.0 | 4.8 | 0.15 | 1.45 | 1.45 | 97 | 1010.1 |
| 20260509194605 | 11 | 217 | 0.0 | 1.6 | 0.18 | 1.42 | 1.42 | 97 | 1010.3 |
| 20260509193025 | 11 | 218 | 0.0 | 4.8 | 0.15 | 1.37 | 1.37 | 97 | 1010.6 |
| 20260509191503 | 11 | 165 | 0.0 | 4.8 | 0.18 | 1.35 | 1.35 | 97 | 1010.7 |
| 20260509184504 | 10 | 155 | 0.0 | 1.6 | 0.20 | 1.27 | 1.27 | 97 | 1011.1 |
| 20260509183103 | 10 | 205 | 0.0 | 3.2 | 0.20 | 1.22 | 1.22 | 97 | 1011.1 |
| 20260509181503 | 10 | 261 | 0.0 | 0.0 | 0.20 | 1.17 | 1.17 | 97 | 1011.0 |
| 20260509174605 | 10 | 261 | 0.0 | 0.0 | 0.15 | 1.07 | 1.07 | 97 | 1010.9 |
| 20260509173106 | 10 | 261 | 0.0 | 0.0 | 0.13 | 1.02 | 1.02 | 97 | 1010.8 |
| 20260509171502 | 10 | 261 | 0.0 | 0.0 | 0.08 | 0.97 | 0.97 | 97 | 1010.8 |
| 20260509170104 | 9 | 261 | 0.0 | 0.0 | 0.10 | 0.94 | 0.94 | 97 | 1010.8 |
| 20260509164603 | 8 | 261 | 0.0 | 0.0 | 0.10 | 0.94 | 0.91 | 97 | 1011.0 |
| 20260509163002 | 8 | 261 | 0.0 | 1.6 | 0.13 | 0.91 | 0.89 | 96 | 1011.5 |
| 20260509161605 | 8 | 257 | 0.0 | 1.6 | 0.15 | 0.91 | 0.89 | 96 | 1011.7 |
| 20260509160003 | 9 | 294 | 0.0 | 3.2 | 0.13 | 0.86 | 0.84 | 96 | 1011.8 |
| 20260509154505 | 9 | 64 | 0.0 | 0.0 | 0.13 | 0.84 | 0.81 | 96 | 1011.8 |
| 20260509153102 | 9 | 64 | 0.0 | 0.0 | 0.10 | 0.79 | 0.76 | 96 | 1011.7 |
| 20260509151503 | 9 | 62 | 0.0 | 1.6 | 0.13 | 0.76 | 0.71 | 96 | 1011.9 |
| 20260509150104 | 9 | 62 | 0.0 | 3.2 | 0.13 | 0.71 | 0.71 | 97 | 1011.9 |
| 20260509144611 | 9 | 62 | 0.0 | 6.4 | 0.13 | 0.71 | 0.69 | 97 | 1012.0 |
| 20260509143003 | 8 | 42 | 0.0 | 4.8 | 0.10 | 0.69 | 0.66 | 97 | 1011.9 |
| 20260509141603 | 8 | 43 | 0.0 | 0.0 | 0.10 | 0.66 | 0.64 | 97 | 1012.1 |
| 20260509140002 | 8 | 43 | 0.0 | 3.2 | 0.08 | 0.61 | 0.58 | 97 | 1012.2 |
| 20260509134502 | 8 | 43 | 0.0 | 0.0 | 0.05 | 0.58 | 0.56 | 97 | 1012.0 |
| 20260509133102 | 7 | 43 | 0.0 | 0.0 | 0.05 | 0.58 | 0.56 | 97 | 1012.3 |
| 20260509131603 | 7 | 43 | 0.0 | 0.0 | 0.03 | 0.56 | 0.53 | 97 | 1012.2 |
| 20260509124505 | 7 | 43 | 0.0 | 0.0 | 0.00 | 0.53 | 0.51 | 97 | 1011.9 |
| 20260509123002 | 7 | 43 | 0.0 | 0.0 | 0.03 | 0.53 | 0.51 | 97 | 1012.1 |
| 20260509121619 | 6 | 43 | 0.0 | 0.0 | 0.05 | 0.53 | 0.51 | 97 | 1012.3 |
| 20260509120003 | 6 | 43 | 0.0 | 0.0 | 0.08 | 0.53 | 0.51 | 96 | 1012.5 |
| 20260509114507 | 6 | 43 | 0.0 | 0.0 | 0.08 | 0.53 | 0.51 | 96 | 1012.5 |
| 20260509113109 | 6 | 43 | 0.0 | 0.0 | 0.05 | 0.51 | 0.48 | 96 | 1012.4 |
| 20260509111502 | 6 | 43 | 0.0 | 0.0 | 0.05 | 0.48 | 0.46 | 96 | 1012.4 |
| 20260509110109 | 6 | 43 | 0.0 | 0.0 | 0.03 | 0.46 | 0.43 | 96 | 1012.4 |
| 20260509104502 | 6 | 43 | 0.0 | 0.0 | 0.05 | 0.46 | 0.43 | 96 | 1012.2 |
| 20260509103107 | 6 | 43 | 0.0 | 0.0 | 0.05 | 0.46 | 0.43 | 96 | 1012.2 |
| 20260509101504 | 6 | 46 | 0.0 | 3.2 | 0.05 | 0.43 | 0.41 | 96 | 1012.0 |
| 20260509094606 | 6 | 196 | 0.0 | 0.0 | 0.08 | 0.41 | 0.38 | 96 | 1012.6 |